| time (UTC) | temp F | wind direction | speed MPH | gust MPH | rain 1hr in | rain 24hr in | rain mn in | humidity % | barometer mb |
| 20260906183007 | 57 | 269 | 0.0 | 0.0 | 0.00 | 0.02 | 0.00 | 74 | 1026.9 |
| 20260906182545 | 57 | 269 | 0.0 | 0.0 | 0.00 | 0.02 | 0.00 | 73 | 1026.8 |
| 20260906182023 | 58 | 269 | 0.0 | 0.0 | 0.00 | 0.02 | 0.00 | 73 | 1026.9 |
| 20260906181519 | 58 | 269 | 0.0 | 0.0 | 0.00 | 0.02 | 0.00 | 72 | 1026.8 |
| 20260906181015 | 59 | 269 | 0.0 | 0.0 | 0.00 | 0.02 | 0.00 | 72 | 1026.8 |
| 20260906180524 | 59 | 269 | 0.0 | 0.0 | 0.00 | 0.02 | 0.00 | 71 | 1026.7 |
| 20260906180045 | 60 | 269 | 0.0 | 0.0 | 0.00 | 0.02 | 0.00 | 70 | 1026.7 |
| 20260906175551 | 60 | 269 | 0.0 | 0.0 | 0.00 | 0.02 | 0.00 | 69 | 1026.7 |
| 20260906175054 | 60 | 269 | 0.0 | 0.0 | 0.00 | 0.02 | 0.00 | 67 | 1026.6 |
| 20260906174539 | 61 | 269 | 0.0 | 0.0 | 0.00 | 0.02 | 0.00 | 66 | 1026.6 |
| 20260906174048 | 61 | 269 | 0.0 | 0.0 | 0.00 | 0.02 | 0.00 | 65 | 1026.7 |
| 20260906173554 | 61 | 269 | 0.0 | 0.0 | 0.00 | 0.02 | 0.00 | 64 | 1026.6 |
| 20260906173004 | 62 | 269 | 0.0 | 0.0 | 0.00 | 0.02 | 0.00 | 63 | 1026.6 |
| 20260906172512 | 62 | 269 | 0.0 | 0.0 | 0.00 | 0.02 | 0.00 | 62 | 1026.6 |
| 20260906172019 | 62 | 275 | 0.0 | 4.0 | 0.00 | 0.02 | 0.00 | 62 | 1026.6 |
| 20260906171614 | 63 | 275 | 0.0 | 4.0 | 0.00 | 0.02 | 0.00 | 62 | 1026.7 |
| 20260906171503 | 63 | 261 | 0.0 | 4.0 | 0.00 | 0.02 | 0.00 | 61 | 1026.7 |
| 20260906171011 | 63 | 280 | 0.0 | 4.0 | 0.00 | 0.02 | 0.00 | 61 | 1026.7 |
| 20260906170519 | 63 | 287 | 0.0 | 2.0 | 0.00 | 0.02 | 0.00 | 60 | 1026.8 |
| 20260906170027 | 63 | 306 | 0.0 | 6.0 | 0.00 | 0.13 | 0.00 | 59 | 1026.7 |
| 20260906165534 | 63 | 320 | 1.0 | 6.0 | 0.00 | 0.13 | 0.00 | 59 | 1026.7 |
| 20260906165045 | 63 | 292 | 1.0 | 5.0 | 0.00 | 0.13 | 0.00 | 59 | 1026.7 |
| 20260906164551 | 64 | 351 | 0.0 | 4.0 | 0.00 | 0.13 | 0.00 | 58 | 1026.7 |
| 20260906164100 | 64 | 279 | 1.0 | 6.0 | 0.00 | 0.13 | 0.00 | 57 | 1026.8 |
| 20260906164002 | 64 | 11 | 2.0 | 6.0 | 0.00 | 0.13 | 0.00 | 57 | 1026.8 |
| 20260906163511 | 64 | 351 | 1.0 | 8.0 | 0.00 | 0.13 | 0.00 | 56 | 1026.7 |
| 20260906163047 | 64 | 310 | 1.0 | 8.0 | 0.00 | 0.13 | 0.00 | 56 | 1026.7 |
| 20260906162530 | 65 | 331 | 1.0 | 6.0 | 0.00 | 0.13 | 0.00 | 56 | 1026.7 |
| 20260906162044 | 65 | 212 | 0.0 | 4.0 | 0.00 | 0.13 | 0.00 | 57 | 1026.7 |
| 20260906161612 | 65 | 298 | 0.0 | 5.0 | 0.00 | 0.13 | 0.00 | 57 | 1026.7 |
| 20260906161051 | 65 | 300 | 1.0 | 5.0 | 0.00 | 0.13 | 0.00 | 57 | 1026.8 |
| 20260906160531 | 65 | 323 | 0.0 | 9.0 | 0.00 | 0.13 | 0.00 | 55 | 1026.8 |
| 20260906160014 | 66 | 319 | 1.0 | 9.0 | 0.00 | 0.13 | 0.00 | 55 | 1026.8 |
| 20260906155555 | 66 | 319 | 2.0 | 8.0 | 0.00 | 0.13 | 0.00 | 54 | 1026.7 |
| 20260906155004 | 66 | 331 | 3.0 | 8.0 | 0.00 | 0.13 | 0.00 | 54 | 1026.7 |
| 20260906154511 | 67 | 14 | 1.0 | 8.0 | 0.00 | 0.13 | 0.00 | 53 | 1026.8 |
| 20260906154017 | 67 | 329 | 3.0 | 12.0 | 0.00 | 0.13 | 0.00 | 53 | 1026.7 |
| 20260906153525 | 66 | 338 | 6.0 | 12.0 | 0.00 | 0.13 | 0.00 | 53 | 1026.7 |
| 20260906153042 | 66 | 280 | 2.0 | 11.0 | 0.00 | 0.13 | 0.00 | 54 | 1026.6 |
| 20260906152546 | 66 | 270 | 5.0 | 11.0 | 0.00 | 0.13 | 0.00 | 55 | 1026.7 |
| 20260906152049 | 65 | 225 | 3.0 | 9.0 | 0.00 | 0.13 | 0.00 | 54 | 1026.6 |
| 20260906151533 | 65 | 274 | 4.0 | 9.0 | 0.00 | 0.13 | 0.00 | 54 | 1026.6 |
| 20260906151015 | 65 | 69 | 1.0 | 9.0 | 0.00 | 0.13 | 0.00 | 55 | 1026.6 |
| 20260906150553 | 66 | 21 | 2.0 | 12.0 | 0.00 | 0.13 | 0.00 | 54 | 1026.5 |
| 20260906150004 | 67 | 298 | 7.0 | 12.0 | 0.00 | 0.13 | 0.00 | 52 | 1026.4 |
| 20260906145511 | 66 | 335 | 3.0 | 13.0 | 0.00 | 0.13 | 0.00 | 52 | 1026.4 |
| 20260906145021 | 66 | 226 | 7.0 | 13.0 | 0.00 | 0.13 | 0.00 | 53 | 1026.4 |
| 20260906144532 | 66 | 267 | 7.0 | 13.0 | 0.00 | 0.13 | 0.00 | 52 | 1026.4 |
| 20260906144043 | 66 | 105 | 2.0 | 13.0 | 0.00 | 0.13 | 0.00 | 53 | 1026.5 |
| 20260906143547 | 66 | 332 | 4.0 | 13.0 | 0.00 | 0.13 | 0.00 | 53 | 1026.4 |
| 20260906143051 | 66 | 53 | 2.0 | 11.0 | 0.00 | 0.13 | 0.00 | 56 | 1026.6 |
| 20260906142534 | 65 | 13 | 4.0 | 11.0 | 0.00 | 0.13 | 0.00 | 54 | 1026.6 |
| 20260906142015 | 66 | 320 | 1.0 | 9.0 | 0.00 | 0.13 | 0.00 | 54 | 1026.5 |
| 20260906141603 | 66 | 317 | 4.0 | 9.0 | 0.00 | 0.13 | 0.00 | 53 | 1026.6 |
| 20260906141029 | 67 | 217 | 2.0 | 16.0 | 0.00 | 0.13 | 0.00 | 52 | 1026.6 |
| 20260906140544 | 67 | 266 | 11.0 | 16.0 | 0.00 | 0.13 | 0.00 | 50 | 1026.5 |
| 20260906140049 | 68 | 236 | 7.0 | 14.0 | 0.00 | 0.13 | 0.00 | 50 | 1026.6 |
| 20260906135555 | 68 | 236 | 8.0 | 19.0 | 0.00 | 0.13 | 0.00 | 50 | 1026.7 |
| 20260906135502 | 67 | 285 | 8.0 | 19.0 | 0.00 | 0.13 | 0.00 | 50 | 1026.7 |
| 20260906135037 | 68 | 285 | 11.0 | 19.0 | 0.00 | 0.13 | 0.00 | 51 | 1026.5 |
| 20260906134519 | 67 | 271 | 7.0 | 14.0 | 0.00 | 0.13 | 0.00 | 52 | 1026.6 |
| 20260906134027 | 67 | 226 | 8.0 | 17.0 | 0.00 | 0.13 | 0.00 | 52 | 1026.6 |
| 20260906133541 | 67 | 246 | 5.0 | 17.0 | 0.00 | 0.13 | 0.00 | 54 | 1026.5 |
| 20260906133056 | 66 | 265 | 5.0 | 16.0 | 0.00 | 0.13 | 0.00 | 54 | 1026.4 |
| 20260906132553 | 66 | 234 | 8.0 | 16.0 | 0.00 | 0.13 | 0.00 | 54 | 1026.5 |
| 20260906132034 | 66 | 287 | 7.0 | 14.0 | 0.00 | 0.13 | 0.00 | 56 | 1026.6 |
| 20260906131517 | 66 | 265 | 3.0 | 12.0 | 0.00 | 0.13 | 0.00 | 58 | 1026.5 |
| 20260906131057 | 65 | 350 | 4.0 | 11.0 | 0.00 | 0.13 | 0.00 | 57 | 1026.7 |
| 20260906130507 | 65 | 309 | 3.0 | 12.0 | 0.00 | 0.13 | 0.00 | 58 | 1026.7 |
| 20260906130020 | 66 | 303 | 3.0 | 12.0 | 0.00 | 0.13 | 0.00 | 57 | 1026.6 |
| 20260906125521 | 65 | 294 | 4.0 | 11.0 | 0.00 | 0.13 | 0.00 | 60 | 1026.6 |
| 20260906125029 | 65 | 230 | 2.0 | 10.0 | 0.00 | 0.13 | 0.00 | 60 | 1026.6 |
| 20260906124537 | 65 | 247 | 5.0 | 10.0 | 0.00 | 0.13 | 0.00 | 59 | 1026.7 |
| 20260906124019 | 65 | 355 | 2.0 | 8.0 | 0.00 | 0.13 | 0.00 | 60 | 1026.7 |
| 20260906123559 | 65 | 265 | 4.0 | 8.0 | 0.00 | 0.13 | 0.00 | 59 | 1026.7 |
| 20260906123500 | 64 | 275 | 3.0 | 8.0 | 0.00 | 0.13 | 0.00 | 59 | 1026.7 |
| 20260906123016 | 65 | 336 | 1.0 | 10.0 | 0.00 | 0.13 | 0.00 | 59 | 1026.7 |
| 20260906122517 | 65 | 312 | 1.0 | 13.0 | 0.00 | 0.13 | 0.00 | 57 | 1026.7 |
| 20260906122024 | 65 | 292 | 5.0 | 16.0 | 0.00 | 0.13 | 0.00 | 57 | 1026.6 |
| 20260906121535 | 65 | 281 | 6.0 | 16.0 | 0.00 | 0.13 | 0.00 | 55 | 1026.5 |
| 20260906121037 | 66 | 260 | 6.0 | 16.0 | 0.00 | 0.13 | 0.00 | 53 | 1026.6 |
| 20260906120519 | 65 | 338 | 4.0 | 16.0 | 0.00 | 0.13 | 0.00 | 57 | 1026.4 |
| 20260906115541 | 65 | 346 | 4.0 | 16.0 | 0.00 | 0.13 | 0.00 | 59 | 1026.4 |
| 20260906115050 | 65 | 247 | 9.0 | 16.0 | 0.00 | 0.13 | 0.00 | 57 | 1026.3 |
| 20260906114557 | 64 | 262 | 10.0 | 15.0 | 0.00 | 0.13 | 0.00 | 58 | 1026.3 |
| 20260906114008 | 63 | 10 | 5.0 | 12.0 | 0.00 | 0.13 | 0.00 | 56 | 1026.3 |
| 20260906113515 | 64 | 355 | 4.0 | 12.0 | 0.00 | 0.13 | 0.00 | 57 | 1026.3 |
| 20260906113051 | 64 | 279 | 0.0 | 11.0 | 0.00 | 0.13 | 0.00 | 60 | 1026.4 |
| 20260906112539 | 65 | 326 | 4.0 | 10.0 | 0.00 | 0.13 | 0.00 | 61 | 1026.5 |
| 20260906112045 | 65 | 294 | 3.0 | 13.0 | 0.00 | 0.13 | 0.00 | 60 | 1026.4 |
| 20260906111553 | 66 | 275 | 2.0 | 13.0 | 0.00 | 0.13 | 0.00 | 57 | 1026.3 |
| 20260906111003 | 66 | 243 | 1.0 | 10.0 | 0.00 | 0.13 | 0.00 | 60 | 1026.2 |
| 20260906110509 | 65 | 250 | 2.0 | 14.0 | 0.00 | 0.13 | 0.00 | 58 | 1026.3 |
| 20260906110045 | 65 | 283 | 8.0 | 19.0 | 0.00 | 0.13 | 0.00 | 59 | 1026.4 |
| 20260906105526 | 65 | 267 | 11.0 | 19.0 | 0.00 | 0.13 | 0.00 | 57 | 1026.4 |
| 20260906105011 | 66 | 279 | 9.0 | 19.0 | 0.00 | 0.13 | 0.00 | 57 | 1026.4 |
| 20260906104517 | 66 | 235 | 10.0 | 19.0 | 0.00 | 0.13 | 0.00 | 56 | 1026.4 |
| 20260906104024 | 65 | 261 | 3.0 | 15.0 | 0.00 | 0.13 | 0.00 | 57 | 1026.5 |
| 20260906103544 | 65 | 312 | 3.0 | 11.0 | 0.00 | 0.13 | 0.00 | 59 | 1026.4 |
| 20260906103048 | 64 | 280 | 1.0 | 13.0 | 0.00 | 0.13 | 0.00 | 59 | 1026.3 |
| 20260906102550 | 63 | 360 | 3.0 | 13.0 | 0.00 | 0.13 | 0.00 | 60 | 1026.2 |
| 20260906102100 | 63 | 280 | 2.0 | 13.0 | 0.00 | 0.13 | 0.00 | 62 | 1026.2 |
| 20260906102002 | 63 | 242 | 2.0 | 13.0 | 0.00 | 0.13 | 0.00 | 61 | 1026.2 |
| 20260906101538 | 63 | 351 | 4.0 | 13.0 | 0.00 | 0.13 | 0.00 | 60 | 1026.2 |
| 20260906101016 | 63 | 319 | 3.0 | 12.0 | 0.00 | 0.13 | 0.00 | 60 | 1026.2 |
| 20260906100550 | 63 | 275 | 3.0 | 11.0 | 0.00 | 0.13 | 0.00 | 61 | 1026.2 |
| 20260906100038 | 63 | 42 | 4.0 | 19.0 | 0.00 | 0.13 | 0.00 | 59 | 1026.2 |
| 20260906095543 | 63 | 282 | 8.0 | 19.0 | 0.00 | 0.13 | 0.00 | 60 | 1026.1 |
| 20260906095047 | 63 | 277 | 9.0 | 19.0 | 0.00 | 0.13 | 0.00 | 61 | 1026.2 |
| 20260906094528 | 63 | 269 | 7.0 | 15.0 | 0.00 | 0.13 | 0.00 | 62 | 1026.1 |
| 20260906094036 | 62 | 250 | 5.0 | 13.0 | 0.00 | 0.13 | 0.00 | 62 | 1026.2 |
| 20260906093519 | 63 | 313 | 5.0 | 9.0 | 0.00 | 0.13 | 0.00 | 62 | 1026.1 |
| 20260906093013 | 62 | 63 | 2.0 | 14.0 | 0.00 | 0.13 | 0.00 | 64 | 1026.2 |
| 20260906092549 | 62 | 336 | 4.0 | 16.0 | 0.00 | 0.13 | 0.00 | 64 | 1026.1 |
| 20260906092057 | 62 | 311 | 1.0 | 16.0 | 0.00 | 0.13 | 0.00 | 66 | 1026.1 |
| 20260906091505 | 62 | 333 | 3.0 | 19.0 | 0.00 | 0.13 | 0.00 | 65 | 1026.3 |
| 20260906091014 | 62 | 314 | 4.0 | 19.0 | 0.00 | 0.13 | 0.00 | 65 | 1026.3 |
| 20260906090548 | 62 | 286 | 5.0 | 14.0 | 0.00 | 0.13 | 0.00 | 65 | 1026.4 |
| 20260906090030 | 62 | 113 | 5.0 | 14.0 | 0.00 | 0.13 | 0.00 | 65 | 1026.3 |
| 20260906085513 | 61 | 291 | 5.0 | 14.0 | 0.00 | 0.13 | 0.00 | 67 | 1026.3 |
| 20260906085022 | 61 | 104 | 7.0 | 20.0 | 0.00 | 0.13 | 0.00 | 68 | 1026.2 |
| 20260906084531 | 61 | 278 | 9.0 | 17.0 | 0.00 | 0.13 | 0.00 | 67 | 1026.3 |
| 20260906084016 | 61 | 276 | 10.0 | 17.0 | 0.00 | 0.13 | 0.00 | 67 | 1026.2 |
| 20260906083551 | 60 | 238 | 5.0 | 20.0 | 0.00 | 0.13 | 0.00 | 70 | 1026.2 |
| 20260906083102 | 60 | 242 | 12.0 | 20.0 | 0.00 | 0.13 | 0.00 | 70 | 1026.2 |
| 20260906082506 | 60 | 256 | 3.0 | 17.0 | 0.00 | 0.13 | 0.00 | 73 | 1026.3 |
| 20260906082013 | 60 | 298 | 5.0 | 17.0 | 0.00 | 0.13 | 0.00 | 72 | 1026.2 |
| 20260906081522 | 59 | 250 | 8.0 | 16.0 | 0.00 | 0.13 | 0.00 | 75 | 1026.1 |
| 20260906081022 | 59 | 244 | 9.0 | 18.0 | 0.00 | 0.13 | 0.00 | 74 | 1026.1 |
| 20260906080532 | 59 | 244 | 9.0 | 18.0 | 0.00 | 0.13 | 0.00 | 74 | 1026.0 |
| 20260906080016 | 59 | 325 | 5.0 | 18.0 | 0.00 | 0.13 | 0.00 | 76 | 1025.9 |
| 20260906075522 | 59 | 296 | 7.0 | 16.0 | 0.00 | 0.13 | 0.00 | 76 | 1025.7 |
| 20260906075037 | 58 | 211 | 5.0 | 18.0 | 0.00 | 0.13 | 0.00 | 77 | 1025.8 |
| 20260906074545 | 58 | 240 | 10.0 | 18.0 | 0.00 | 0.13 | 0.00 | 77 | 1025.8 |
| 20260906074050 | 58 | 289 | 10.0 | 18.0 | 0.00 | 0.13 | 0.00 | 78 | 1025.7 |
| 20260906073603 | 57 | 239 | 12.0 | 17.0 | 0.00 | 0.13 | 0.00 | 78 | 1025.6 |
| 20260906073008 | 57 | 256 | 11.0 | 17.0 | 0.00 | 0.13 | 0.00 | 79 | 1025.6 |
| 20260906072519 | 57 | 269 | 9.0 | 20.0 | 0.00 | 0.13 | 0.00 | 80 | 1025.5 |
| 20260906072025 | 56 | 279 | 9.0 | 18.0 | 0.00 | 0.13 | 0.00 | 81 | 1025.5 |
| 20260906071601 | 56 | 225 | 9.0 | 18.0 | 0.00 | 0.13 | 0.00 | 81 | 1025.4 |
| 20260906071506 | 56 | 260 | 9.0 | 18.0 | 0.00 | 0.13 | 0.00 | 81 | 1025.4 |
| 20260906071047 | 56 | 289 | 9.0 | 16.0 | 0.00 | 0.13 | 0.00 | 81 | 1025.5 |
| 20260906070559 | 56 | 262 | 10.0 | 17.0 | 0.00 | 0.13 | 0.00 | 81 | 1025.4 |
| 20260906070008 | 56 | 273 | 10.0 | 18.0 | 0.00 | 0.13 | 0.00 | 80 | 1025.2 |
| 20260906065517 | 57 | 265 | 9.0 | 18.0 | 0.00 | 0.13 | 0.00 | 80 | 1025.2 |
| 20260906065024 | 57 | 267 | 9.0 | 16.0 | 0.00 | 0.13 | 0.00 | 80 | 1025.2 |
| 20260906064531 | 57 | 279 | 11.0 | 17.0 | 0.00 | 0.13 | 0.00 | 80 | 1025.0 |
| 20260906064045 | 56 | 273 | 9.0 | 17.0 | 0.00 | 0.13 | 0.00 | 80 | 1025.0 |
| 20260906063548 | 56 | 271 | 10.0 | 18.0 | 0.00 | 0.13 | 0.00 | 81 | 1025.0 |
| 20260906063029 | 56 | 275 | 6.0 | 18.0 | 0.00 | 0.13 | 0.00 | 82 | 1024.9 |
| 20260906062541 | 55 | 283 | 9.0 | 21.0 | 0.00 | 0.13 | 0.00 | 82 | 1024.9 |
| 20260906062046 | 55 | 254 | 11.0 | 21.0 | 0.00 | 0.13 | 0.00 | 83 | 1024.8 |
| 20260906061559 | 55 | 269 | 8.0 | 16.0 | 0.00 | 0.13 | 0.00 | 83 | 1024.8 |
| 20260906061006 | 54 | 279 | 7.0 | 14.0 | 0.00 | 0.13 | 0.00 | 84 | 1024.6 |
| 20260906060512 | 54 | 265 | 6.0 | 14.0 | 0.00 | 0.13 | 0.00 | 84 | 1024.6 |
| 20260906060022 | 54 | 180 | 9.0 | 14.0 | 0.00 | 0.13 | 0.00 | 84 | 1024.6 |
| 20260906055552 | 54 | 300 | 6.0 | 13.0 | 0.00 | 0.13 | 0.00 | 85 | 1024.7 |
| 20260906055501 | 54 | 261 | 6.0 | 13.0 | 0.00 | 0.13 | 0.00 | 85 | 1024.7 |
| 20260906055035 | 54 | 254 | 5.0 | 11.0 | 0.00 | 0.13 | 0.00 | 85 | 1024.7 |
| 20260906054516 | 54 | 236 | 4.0 | 12.0 | 0.00 | 0.13 | 0.00 | 85 | 1024.5 |
| 20260906054025 | 53 | 244 | 6.0 | 12.0 | 0.00 | 0.13 | 0.00 | 85 | 1024.3 |
| 20260906053532 | 53 | 241 | 5.0 | 15.0 | 0.00 | 0.13 | 0.00 | 85 | 1024.3 |
| 20260906053044 | 53 | 290 | 6.0 | 15.0 | 0.00 | 0.13 | 0.00 | 85 | 1024.2 |
| 20260906052555 | 53 | 251 | 7.0 | 14.0 | 0.00 | 0.13 | 0.00 | 85 | 1024.1 |
| 20260906052006 | 53 | 242 | 7.0 | 13.0 | 0.00 | 0.13 | 0.00 | 86 | 1024.1 |
| 20260906051542 | 53 | 278 | 7.0 | 17.0 | 0.00 | 0.13 | 0.00 | 86 | 1024.1 |
| 20260906051024 | 53 | 277 | 9.0 | 17.0 | 0.00 | 0.13 | 0.00 | 86 | 1024.1 |
| 20260906050533 | 53 | 289 | 6.0 | 15.0 | 0.00 | 0.13 | 0.00 | 86 | 1024.1 |
| 20260906050046 | 53 | 266 | 6.0 | 17.0 | 0.00 | 0.13 | 0.00 | 86 | 1024.0 |
| 20260906045554 | 53 | 265 | 8.0 | 17.0 | 0.00 | 0.13 | 0.00 | 86 | 1023.9 |
| 20260906045004 | 53 | 269 | 8.0 | 16.0 | 0.00 | 0.13 | 0.00 | 86 | 1023.8 |
| 20260906044516 | 53 | 261 | 8.0 | 14.0 | 0.00 | 0.13 | 0.00 | 86 | 1023.7 |
| 20260906044023 | 53 | 276 | 7.0 | 14.0 | 0.00 | 0.13 | 0.00 | 86 | 1023.7 |
| 20260906043532 | 53 | 280 | 5.0 | 11.0 | 0.00 | 0.13 | 0.00 | 85 | 1023.6 |
| 20260906043026 | 53 | 267 | 6.0 | 13.0 | 0.00 | 0.13 | 0.00 | 85 | 1023.5 |
| 20260906042555 | 53 | 261 | 8.0 | 13.0 | 0.00 | 0.13 | 0.00 | 85 | 1023.5 |
| 20260906042004 | 53 | 259 | 6.0 | 13.0 | 0.00 | 0.13 | 0.00 | 85 | 1023.5 |
| 20260906041511 | 53 | 278 | 7.0 | 14.0 | 0.00 | 0.13 | 0.00 | 85 | 1023.3 |
| 20260906041019 | 53 | 277 | 9.0 | 14.0 | 0.00 | 0.13 | 0.00 | 85 | 1023.3 |
| 20260906040554 | 53 | 267 | 9.0 | 16.0 | 0.00 | 0.13 | 0.00 | 85 | 1023.2 |
| 20260906040503 | 53 | 273 | 9.0 | 16.0 | 0.00 | 0.13 | 0.00 | 85 | 1023.2 |
| 20260906040037 | 54 | 286 | 8.0 | 16.0 | 0.00 | 0.13 | 0.00 | 85 | 1023.1 |
| 20260906035518 | 54 | 259 | 8.0 | 18.0 | 0.00 | 0.13 | 0.00 | 85 | 1023.1 |
| 20260906035026 | 54 | 271 | 10.0 | 18.0 | 0.00 | 0.13 | 0.00 | 85 | 1023.1 |
| 20260906034552 | 54 | 248 | 8.0 | 17.0 | 0.00 | 0.13 | 0.00 | 85 | 1023.1 |
| 20260906034046 | 54 | 238 | 10.0 | 17.0 | 0.00 | 0.13 | 0.00 | 85 | 1023.0 |
| 20260906033554 | 54 | 297 | 7.0 | 18.0 | 0.00 | 0.13 | 0.00 | 85 | 1023.0 |
| 20260906033004 | 54 | 274 | 11.0 | 18.0 | 0.00 | 0.13 | 0.00 | 85 | 1023.0 |
| 20260906032538 | 54 | 259 | 8.0 | 14.0 | 0.00 | 0.13 | 0.00 | 85 | 1022.9 |
| 20260906032022 | 54 | 303 | 6.0 | 17.0 | 0.00 | 0.13 | 0.00 | 85 | 1022.9 |
| 20260906031532 | 54 | 273 | 10.0 | 17.0 | 0.00 | 0.13 | 0.00 | 85 | 1022.8 |
| 20260906031042 | 54 | 265 | 9.0 | 15.0 | 0.00 | 0.13 | 0.00 | 86 | 1022.8 |
| 20260906030552 | 54 | 293 | 6.0 | 13.0 | 0.00 | 0.13 | 0.00 | 86 | 1022.8 |
| 20260906030100 | 54 | 267 | 8.0 | 13.0 | 0.00 | 0.13 | 0.00 | 86 | 1022.8 |
| 20260906030003 | 54 | 290 | 9.0 | 13.0 | 0.00 | 0.13 | 0.00 | 86 | 1022.8 |
| 20260906025515 | 54 | 257 | 9.0 | 13.0 | 0.00 | 0.13 | 0.00 | 86 | 1022.9 |
| 20260906025022 | 54 | 270 | 7.0 | 12.0 | 0.00 | 0.13 | 0.00 | 86 | 1022.8 |
| 20260906024606 | 54 | 242 | 6.0 | 11.0 | 0.00 | 0.13 | 0.00 | 86 | 1022.7 |
| 20260906024504 | 54 | 282 | 6.0 | 11.0 | 0.00 | 0.13 | 0.00 | 86 | 1022.7 |
| 20260906024040 | 54 | 230 | 6.0 | 13.0 | 0.00 | 0.13 | 0.00 | 86 | 1022.8 |
| 20260906023522 | 54 | 281 | 6.0 | 13.0 | 0.00 | 0.13 | 0.00 | 86 | 1022.8 |
| 20260906023031 | 54 | 276 | 4.0 | 13.0 | 0.00 | 0.13 | 0.00 | 86 | 1022.8 |
| 20260906022545 | 54 | 257 | 8.0 | 13.0 | 0.00 | 0.13 | 0.00 | 86 | 1022.7 |
| 20260906022048 | 54 | 292 | 8.0 | 14.0 | 0.00 | 0.13 | 0.00 | 86 | 1022.6 |
| 20260906021602 | 54 | 246 | 8.0 | 14.0 | 0.00 | 0.13 | 0.00 | 86 | 1022.5 |
| 20260906021006 | 54 | 254 | 6.0 | 17.0 | 0.00 | 0.13 | 0.00 | 85 | 1022.5 |
| 20260906020513 | 54 | 266 | 9.0 | 17.0 | 0.00 | 0.13 | 0.00 | 85 | 1022.4 |
| 20260906020020 | 54 | 267 | 8.0 | 13.0 | 0.00 | 0.13 | 0.00 | 85 | 1022.5 |
| 20260906015509 | 54 | 240 | 6.0 | 11.0 | 0.00 | 0.13 | 0.00 | 85 | 1022.4 |
| 20260906015046 | 54 | 263 | 5.0 | 11.0 | 0.00 | 0.13 | 0.00 | 85 | 1022.5 |
| 20260906014528 | 54 | 271 | 6.0 | 11.0 | 0.00 | 0.13 | 0.00 | 85 | 1022.4 |
| 20260906014043 | 54 | 254 | 7.0 | 13.0 | 0.00 | 0.13 | 0.00 | 84 | 1022.3 |
| 20260906013548 | 55 | 252 | 6.0 | 14.0 | 0.00 | 0.13 | 0.00 | 84 | 1022.3 |
| 20260906013056 | 55 | 257 | 8.0 | 14.0 | 0.00 | 0.13 | 0.00 | 84 | 1022.2 |
| 20260906012506 | 55 | 277 | 7.0 | 13.0 | 0.00 | 0.13 | 0.00 | 84 | 1022.2 |
| 20260906012012 | 55 | 248 | 8.0 | 19.0 | 0.00 | 0.13 | 0.00 | 83 | 1022.2 |
| 20260906011551 | 55 | 239 | 9.0 | 19.0 | 0.00 | 0.13 | 0.00 | 83 | 1022.2 |
| 20260906011038 | 55 | 255 | 8.0 | 18.0 | 0.00 | 0.13 | 0.00 | 83 | 1022.1 |
| 20260906010544 | 55 | 277 | 12.0 | 18.0 | 0.00 | 0.13 | 0.00 | 83 | 1021.9 |
| 20260906010121 | 55 | 251 | 10.0 | 17.0 | 0.00 | 0.13 | 0.00 | 83 | 1021.9 |
| 20260906005559 | 55 | 254 | 10.0 | 17.0 | 0.00 | 0.13 | 0.00 | 83 | 1021.9 |
| 20260906005503 | 55 | 305 | 9.0 | 16.0 | 0.00 | 0.13 | 0.00 | 83 | 1021.9 |
| 20260906005010 | 55 | 259 | 10.0 | 16.0 | 0.00 | 0.13 | 0.00 | 83 | 1021.9 |
| 20260906004518 | 55 | 259 | 10.0 | 16.0 | 0.00 | 0.13 | 0.00 | 83 | 1022.0 |
| 20260906004029 | 55 | 267 | 10.0 | 19.0 | 0.00 | 0.13 | 0.00 | 83 | 1022.0 |
| 20260906003535 | 55 | 250 | 10.0 | 19.0 | 0.00 | 0.13 | 0.00 | 83 | 1021.9 |
| 20260906003016 | 55 | 255 | 7.0 | 16.0 | 0.00 | 0.13 | 0.00 | 83 | 1021.8 |
| 20260906002555 | 55 | 270 | 9.0 | 16.0 | 0.00 | 0.13 | 0.00 | 83 | 1021.7 |
| 20260906002007 | 55 | 263 | 9.0 | 14.0 | 0.00 | 0.13 | 0.00 | 83 | 1021.8 |
| 20260906001528 | 56 | 279 | 8.0 | 14.0 | 0.00 | 0.13 | 0.00 | 82 | 1021.9 |
| 20260906001020 | 56 | 256 | 7.0 | 18.0 | 0.00 | 0.13 | 0.00 | 82 | 1021.8 |
| 20260906000529 | 56 | 259 | 9.0 | 18.0 | 0.00 | 0.13 | 0.00 | 82 | 1021.8 |
| 20260906000036 | 56 | 261 | 9.0 | 15.0 | 0.00 | 0.13 | 0.00 | 82 | 1021.7 |
| 20260905235515 | 56 | 279 | 8.0 | 15.0 | 0.00 | 0.13 | 0.00 | 82 | 1021.7 |
| 20260905235056 | 56 | 251 | 8.0 | 15.0 | 0.00 | 0.13 | 0.00 | 83 | 1021.8 |
| 20260905234506 | 56 | 221 | 8.0 | 15.0 | 0.00 | 0.13 | 0.00 | 83 | 1021.7 |
| 20260905234014 | 56 | 288 | 8.0 | 18.0 | 0.00 | 0.13 | 0.00 | 83 | 1021.7 |
| 20260905233522 | 56 | 273 | 8.0 | 18.0 | 0.00 | 0.13 | 0.00 | 83 | 1021.7 |
| 20260905233032 | 56 | 275 | 9.0 | 16.0 | 0.00 | 0.13 | 0.00 | 82 | 1021.7 |
| 20260905232544 | 56 | 257 | 10.0 | 15.0 | 0.00 | 0.13 | 0.00 | 83 | 1021.6 |
| 20260905232052 | 56 | 253 | 7.0 | 19.0 | 0.00 | 0.13 | 0.00 | 83 | 1021.7 |
| 20260905231555 | 56 | 282 | 12.0 | 19.0 | 0.00 | 0.13 | 0.00 | 83 | 1021.6 |
| 20260905231033 | 56 | 279 | 7.0 | 14.0 | 0.00 | 0.13 | 0.00 | 84 | 1021.6 |
| 20260905230515 | 56 | 251 | 8.0 | 14.0 | 0.00 | 0.13 | 0.00 | 84 | 1021.6 |
| 20260905230054 | 56 | 254 | 8.0 | 14.0 | 0.00 | 0.13 | 0.00 | 84 | 1021.6 |
| 20260905225503 | 56 | 251 | 8.0 | 14.0 | 0.00 | 0.13 | 0.00 | 84 | 1021.6 |
| 20260905225012 | 56 | 251 | 9.0 | 14.0 | 0.00 | 0.13 | 0.00 | 84 | 1021.5 |
| 20260905224524 | 56 | 260 | 8.0 | 18.0 | 0.00 | 0.13 | 0.00 | 84 | 1021.3 |
| 20260905224030 | 56 | 217 | 12.0 | 18.0 | 0.00 | 0.13 | 0.00 | 84 | 1021.2 |
| 20260905223512 | 55 | 261 | 7.0 | 16.0 | 0.00 | 0.13 | 0.00 | 84 | 1021.2 |
| 20260905223054 | 55 | 261 | 10.0 | 16.0 | 0.00 | 0.13 | 0.00 | 85 | 1021.1 |
| 20260905222530 | 55 | 246 | 8.0 | 13.0 | 0.00 | 0.13 | 0.00 | 85 | 1021.1 |
| 20260905222042 | 55 | 274 | 8.0 | 13.0 | 0.00 | 0.13 | 0.00 | 85 | 1021.1 |
| 20260905221547 | 55 | 274 | 5.0 | 11.0 | 0.00 | 0.13 | 0.00 | 85 | 1021.2 |
| 20260905221028 | 55 | 231 | 8.0 | 14.0 | 0.00 | 0.13 | 0.00 | 85 | 1021.2 |
| 20260905220514 | 55 | 243 | 8.0 | 14.0 | 0.00 | 0.13 | 0.00 | 85 | 1021.2 |
| 20260905220047 | 55 | 248 | 7.0 | 14.0 | 0.00 | 0.17 | 0.13 | 86 | 1021.1 |
| 20260905215555 | 55 | 252 | 8.0 | 14.0 | 0.00 | 0.17 | 0.13 | 86 | 1021.1 |
| 20260905215009 | 55 | 254 | 8.0 | 15.0 | 0.00 | 0.17 | 0.13 | 86 | 1021.1 |
| 20260905214516 | 55 | 252 | 9.0 | 15.0 | 0.00 | 0.17 | 0.13 | 86 | 1021.1 |
| 20260905214021 | 55 | 263 | 6.0 | 13.0 | 0.00 | 0.17 | 0.13 | 86 | 1021.0 |
| 20260905213528 | 55 | 278 | 6.0 | 13.0 | 0.00 | 0.17 | 0.13 | 86 | 1021.0 |
| 20260905213035 | 55 | 219 | 5.0 | 13.0 | 0.00 | 0.17 | 0.13 | 87 | 1020.8 |
| 20260905212547 | 56 | 245 | 6.0 | 13.0 | 0.00 | 0.17 | 0.13 | 87 | 1020.9 |
| 20260905212049 | 56 | 265 | 7.0 | 12.0 | 0.00 | 0.17 | 0.13 | 87 | 1020.8 |
| 20260905211536 | 56 | 276 | 5.0 | 10.0 | 0.00 | 0.17 | 0.13 | 86 | 1020.7 |
| 20260905211041 | 56 | 262 | 6.0 | 12.0 | 0.00 | 0.17 | 0.13 | 86 | 1020.7 |
| 20260905210543 | 56 | 232 | 6.0 | 14.0 | 0.00 | 0.17 | 0.13 | 86 | 1020.8 |
| 20260905210037 | 56 | 261 | 4.0 | 13.0 | 0.00 | 0.25 | 0.13 | 86 | 1020.7 |
| 20260905205539 | 56 | 275 | 6.0 | 14.0 | 0.00 | 0.25 | 0.13 | 86 | 1020.8 |
| 20260905205047 | 56 | 286 | 9.0 | 14.0 | 0.00 | 0.25 | 0.13 | 86 | 1020.7 |
| 20260905204558 | 56 | 289 | 8.0 | 13.0 | 0.00 | 0.25 | 0.13 | 87 | 1020.7 |
| 20260905204059 | 56 | 284 | 8.0 | 12.0 | 0.00 | 0.25 | 0.13 | 87 | 1020.6 |
| 20260905204002 | 56 | 279 | 7.0 | 12.0 | 0.00 | 0.25 | 0.13 | 88 | 1020.7 |
| 20260905203512 | 56 | 273 | 8.0 | 14.0 | 0.00 | 0.25 | 0.13 | 88 | 1020.7 |
| 20260905203020 | 56 | 237 | 6.0 | 12.0 | 0.00 | 0.25 | 0.13 | 88 | 1020.6 |
| 20260905202527 | 56 | 254 | 5.0 | 12.0 | 0.00 | 0.25 | 0.13 | 88 | 1020.6 |
| 20260905202009 | 56 | 267 | 5.0 | 13.0 | 0.00 | 0.25 | 0.13 | 88 | 1020.5 |
| 20260905201523 | 56 | 275 | 6.0 | 14.0 | 0.00 | 0.25 | 0.13 | 88 | 1020.4 |
| 20260905201025 | 56 | 264 | 8.0 | 14.0 | 0.00 | 0.25 | 0.13 | 88 | 1020.4 |
| 20260905200534 | 56 | 276 | 6.0 | 11.0 | 0.00 | 0.25 | 0.13 | 88 | 1020.3 |
| 20260905200110 | 56 | 269 | 6.0 | 11.0 | 0.00 | 0.31 | 0.13 | 88 | 1020.2 |
| 20260905195554 | 56 | 286 | 5.0 | 11.0 | 0.00 | 0.31 | 0.13 | 88 | 1020.1 |
| 20260905195006 | 56 | 279 | 6.0 | 12.0 | 0.00 | 0.31 | 0.13 | 88 | 1020.1 |
| 20260905194511 | 56 | 267 | 5.0 | 12.0 | 0.00 | 0.31 | 0.13 | 88 | 1020.0 |
| 20260905194022 | 56 | 250 | 6.0 | 11.0 | 0.00 | 0.31 | 0.13 | 88 | 1020.0 |
| 20260905193529 | 56 | 273 | 4.0 | 12.0 | 0.00 | 0.31 | 0.13 | 88 | 1019.8 |
| 20260905193017 | 56 | 279 | 5.0 | 12.0 | 0.01 | 0.31 | 0.13 | 88 | 1019.9 |
| 20260905192545 | 56 | 261 | 7.0 | 12.0 | 0.01 | 0.31 | 0.13 | 88 | 1019.8 |
| 20260905192028 | 56 | 252 | 4.0 | 13.0 | 0.01 | 0.31 | 0.13 | 88 | 1019.8 |
| 20260905191542 | 56 | 271 | 5.0 | 13.0 | 0.02 | 0.31 | 0.13 | 88 | 1019.8 |
| 20260905191043 | 56 | 213 | 5.0 | 9.0 | 0.02 | 0.31 | 0.13 | 89 | 1019.7 |
| 20260905190525 | 56 | 265 | 5.0 | 12.0 | 0.02 | 0.31 | 0.13 | 89 | 1019.7 |
| 20260905190034 | 56 | 244 | 4.0 | 12.0 | 0.02 | 0.31 | 0.13 | 88 | 1019.7 |
| 20260905185514 | 56 | 259 | 6.0 | 12.0 | 0.02 | 0.31 | 0.13 | 88 | 1019.6 |
| 20260905185055 | 56 | 228 | 5.0 | 11.0 | 0.02 | 0.31 | 0.13 | 88 | 1019.5 |
| 20260905184508 | 56 | 257 | 5.0 | 13.0 | 0.02 | 0.31 | 0.13 | 88 | 1019.6 |
| 20260905184017 | 56 | 243 | 6.0 | 16.0 | 0.02 | 0.31 | 0.13 | 88 | 1019.6 |
| 20260905183526 | 56 | 272 | 8.0 | 16.0 | 0.02 | 0.31 | 0.13 | 87 | 1019.7 |